Toronto Pearson, Ontario

3:03 AM EDT on July 21, 2019 (GMT -0400)
Toronto-Pearson International

Weather History for CYYZ - May, 2019

Change the Weather History Date:

Tuesday, May 28, 2019

  Actual Average Record
Temperature  
Mean Temperature 52 °F -  
Max Temperature 55 °F 73 °F 90 °F (2012)
Min Temperature 49 °F 51 °F 39 °F (2008)
Degree Days  
Heating Degree Days 13    
Growing Degree Days 2 (Base 50)    
Moisture  
Dew Point 49 °F    
Average Humidity 87    
Maximum Humidity 100    
Minimum Humidity 59    
Precipitation  
Precipitation 0.08 in 0.09 in - ()
Sea Level Pressure  
Sea Level Pressure 29.77 in    
Wind  
Wind Speed 16 mph ()    
Max Wind Speed 30 mph    
Max Gust Speed 43 mph    
Visibility 11.0 miles    
Events Rain    
Averages and records for this station are not official NWS values.
T = Trace of Precipitation, MM = Missing Value Source: Averaged Metar Reports

Daily Weather History Graph

Daily Weather History Graph

Search for Another Location

Airport or City:

Astronomy

May. 28, 2019 Rise Set
Actual Time 5:42 AM EDT 8:49 PM EDT
Civil Twilight 5:07 AM EDT 9:24 PM EDT
Nautical Twilight 4:23 AM EDT 10:09 PM EDT
Astronomical Twilight 3:29 AM EDT 11:02 PM EDT
Moon 3:08 AM EDT (5/28) 2:44 PM EDT (5/28)
Length of Visible Light 16h 16m
Length of Day
15h 07m
Waning Crescent, 32% of the Moon is Illuminated
May 28
Waning Crescent
Jun 3
New
Jun 10
First Quarter
Jun 17
Full
Jun 25
Last Quarter

Hourly Weather History & Observations

Time (EDT) Temp. Dew Point Humidity Pressure Visibility Wind Dir Wind Speed Gust Speed Precip Events Conditions
12:00 AM 60.8 °F 46.4 °F 59% 29.92 in 15.0 mi East 18.4 mph - N/A   Overcast
1:00 AM 57.2 °F 46.4 °F 67% 29.91 in 15.0 mi East 12.7 mph 19.6 mph N/A   Overcast
1:12 AM 57.2 °F 46.4 °F 67% 29.90 in 15.0 mi East 16.1 mph - N/A Rain Light Rain
2:00 AM 55 °F 50 °F 77% 29.88 in 12 mi East 12.7 mph - - Rain Light Rain
2:00 AM 55.4 °F 50.0 °F 82% 29.87 in 12.0 mi East 12.7 mph - N/A Rain Light Rain
3:00 AM 53.6 °F 50.0 °F 88% 29.82 in 12.0 mi East 19.6 mph - N/A Rain Light Rain
4:00 AM 53.6 °F 50.0 °F 88% 29.81 in 12.0 mi East 20.7 mph 27.6 mph N/A Rain Light Rain
5:00 AM 52 °F 47 °F 76% 29.78 in 12 mi East 23.0 mph - -   Overcast
5:00 AM 51.8 °F 46.4 °F 82% 29.77 in 12.0 mi East 24.2 mph 32.2 mph N/A Rain Light Rain
6:00 AM 51.8 °F 42.8 °F 71% 29.76 in 12.0 mi East 29.9 mph 36.8 mph N/A Rain Light Rain
6:08 AM 51.8 °F 44.6 °F 76% 29.77 in 8.0 mi East 26.5 mph 36.8 mph N/A Rain Rain
6:22 AM 50.0 °F 44.6 °F 82% 29.78 in 3.0 mi East 25.3 mph 32.2 mph N/A Rain Light Rain
7:00 AM 50.0 °F 46.4 °F 87% 29.76 in 15.0 mi East 28.8 mph 36.8 mph N/A Rain Light Rain
8:00 AM 49 °F 46 °F 83% 29.74 in 12 mi East 26.5 mph - - Rain Light Rain
8:49 AM 50.0 °F 46.4 °F 87% 29.74 in 15.0 mi East 26.5 mph 36.8 mph N/A   Overcast
9:00 AM 50.0 °F 46.4 °F 87% 29.73 in 15.0 mi East 23.0 mph 42.6 mph N/A   Overcast
9:09 AM 50.0 °F 46.4 °F 87% 29.72 in 15.0 mi East 27.6 mph 34.5 mph N/A   Overcast
9:44 AM 50.0 °F 46.4 °F 87% 29.73 in 8.0 mi East 21.9 mph 34.5 mph N/A Rain Light Rain
10:00 AM 50.0 °F 46.4 °F 87% 29.73 in 8.0 mi ENE 20.7 mph 31.1 mph N/A Rain Light Rain
10:11 AM 50.0 °F 46.4 °F 87% 29.73 in 12.0 mi East 21.9 mph 29.9 mph N/A Rain Light Rain
11:00 AM 50 °F 47 °F 87% 29.75 in 5 mi East 19.6 mph - -   Overcast
11:00 AM 50.0 °F 48.2 °F 94% 29.74 in 5.0 mi East 16.1 mph 26.5 mph N/A Rain Light Rain
11:21 AM 50.0 °F 48.2 °F 94% 29.73 in 5.0 mi East 18.4 mph 29.9 mph N/A Rain Light Rain
11:42 AM 50.0 °F 48.2 °F 94% 29.73 in 5.0 mi East 16.1 mph 24.2 mph N/A Rain Light Rain
1:00 PM 51.8 °F 50.0 °F 94% 29.74 in 3.0 mi ENE 16.1 mph 21.9 mph N/A Rain Light Rain
1:38 PM 51.8 °F 51.8 °F 100% 29.74 in 5.0 mi East 15.0 mph 20.7 mph N/A   Light Drizzle
2:00 PM 52 °F 51 °F 95% 29.75 in 6 mi ENE 12.7 mph - - Rain Light Drizzle
2:00 PM 51.8 °F 51.8 °F 100% 29.75 in 6.0 mi ENE 11.5 mph - N/A   Light Drizzle
3:00 PM 53.6 °F 51.8 °F 94% 29.75 in 7.0 mi East 12.7 mph - N/A   Light Drizzle
3:27 PM 53.6 °F 51.8 °F 94% 29.75 in 3.0 mi ENE 12.7 mph - N/A Rain Light Rain
3:52 PM 53.6 °F 53.6 °F 100% 29.74 in 6.0 mi ENE 11.5 mph - N/A   Light Drizzle
4:00 PM 53.6 °F 51.8 °F 94% 29.74 in 6.0 mi ENE 13.8 mph - N/A   Light Drizzle
4:48 PM 53.6 °F 51.8 °F 94% 29.74 in 15.0 mi ENE 13.8 mph - N/A   Overcast
5:00 PM 54 °F 52 °F 90% 29.73 in 15 mi ENE 15.0 mph - -   Overcast
5:00 PM 55.4 °F 51.8 °F 88% 29.73 in 15.0 mi ENE 15.0 mph - N/A   Overcast
6:00 PM 53.6 °F 50.0 °F 88% 29.73 in 15.0 mi East 15.0 mph - N/A   Overcast
7:00 PM 55.4 °F 50.0 °F 82% 29.75 in 15.0 mi East 12.7 mph - N/A   Overcast
7:15 PM 53.6 °F 50.0 °F 88% 29.74 in 15.0 mi ENE 10.4 mph - N/A   Overcast
8:00 PM 54 °F 51 °F 84% 29.76 in 15 mi ENE 11.5 mph - -   Partly Cloudy
8:00 PM 53.6 °F 50.0 °F 88% 29.76 in 15.0 mi ENE 10.4 mph - N/A   Overcast
8:16 PM 53.6 °F 51.8 °F 94% 29.77 in 15.0 mi SSE 11.5 mph - N/A   Overcast
9:00 PM 53.6 °F 51.8 °F 94% 29.78 in 15.0 mi SSE 10.4 mph - N/A   Overcast
10:00 PM 51.8 °F 50.0 °F 94% 29.79 in 15.0 mi SSE 10.4 mph - N/A   Overcast
11:00 PM 52 °F 50 °F 89% 29.80 in 15 mi SSE 5.8 mph - -   Overcast
11:00 PM 51.8 °F 50.0 °F 94% 29.80 in 15.0 mi SSE 8.1 mph - N/A   Overcast
11:28 PM 51.8 °F 50.0 °F 94% 29.80 in 10.0 mi SSE 6.9 mph - N/A   Light Drizzle